SCP
0 0 0 0 0 0 0 0 0 0 0 0 0 0 0 0 0 0 0 0 0 1 1 1 1 1 1 1 1 1 1 1 1 0 0 0 0 0 0 0 0 0 1 1 1 1 1 0 0
0 0 0 0 0 0 0 0 0 0 0 0 0 0 0 0 0 0 0 0 0 0 0 1 1 1 1 1 1 1 1 1 1 1 0 0 0 0 0 0 0 0 1 1 1 1 1 1 0
0 0 0 0 0 0 0 0 0 0 0 0 0 0 0 0 0 0 0 0 0 0 0 0 1 1 1 2 2 2 2 2 1 1 1 1 1 0 0 0 0 1 1 1 1 1 1 1 1
0 0 0 0 0 0 0 0 0 0 0 0 0 0 0 0 0 0 0 0 0 0 0 0 0 1 1 1 1 2 2 2 2 2 1 1 1 1 1 1 1 1 1 1 1 1 1 1 1
0 0 0 0 0 0 0 0 0 0 0 0 0 0 0 0 0 0 0 0 0 0 0 0 0 0 0 0 1 1 1 2 2 2 2 2 2 2 1 1 1 1 1 1 2 2 2 2 1
0 0 0 0 0 0 0 0 0 0 0 0 0 0 0 0 0 0 0 0 0 0 0 0 0 0 0 0 0 0 0 1 1 1 2 2 3 3 2 2 2 2 1 2 2 2 2 2 2
0 0 0 0 0 0 0 0 0 0 0 0 0 0 0 0 0 0 0 0 0 0 0 0 0 0 0 0 0 0 0 0 0 0 1 1 2 3 3 2 2 2 2 2 2 3 2 2 2
0 0 0 0 0 0 0 0 0 0 0 0 0 0 0 0 0 0 0 0 0 0 0 0 0 0 0 0 0 0 0 0 0 0 0 0 1 2 2 2 2 2 2 2 2 3 3 3 3
0 0 0 0 0 0 0 0 0 0 0 0 0 0 0 0 0 0 0 0 0 0 0 0 0 0 0 0 0 0 0 0 0 0 0 0 0 1 1 1 2 2 2 2 2 2 3 3 3
0 0 0 0 0 0 0 0 0 0 0 0 0 0 0 0 0 0 0 0 0 0 0 0 0 0 0 0 0 0 0 0 0 0 0 0 0 0 0 1 1 1 2 2 2 2 2 2 3
0 0 0 0 0 0 0 0 0 0 0 0 0 0 0 0 0 0 0 0 0 0 0 0 0 0 0 0 0 0 0 0 0 0 0 0 0 0 0 0 0 1 1 2 2 2 2 2 2
0 0 0 0 0 0 0 0 0 0 0 0 0 0 0 0 0 0 0 0 0 0 0 0 0 0 0 0 0 0 0 0 0 0 0 0 0 0 0 0 0 0 1 1 2 2 2 2 2
0 0 0 0 0 0 0 0 0 0 0 0 0 0 0 0 0 0 0 0 0 0 0 0 0 0 0 0 0 0 0 0 0 0 0 0 0 0 0 0 0 0 0 1 1 1 1 1 1
0 0 0 0 0 0 0 0 0 0 0 0 0 0 0 0 0 0 0 0 0 0 0 0 0 0 0 0 0 0 0 0 0 0 0 0 0 0 0 0 0 0 0 0 0 1 1 1 1
0 0 0 0 0 0 0 0 0 0 0 0 0 0 0 0 0 0 0 0 0 0 0 0 0 0 0 0 0 0 0 0 0 0 0 0 0 0 0 0 0 0 0 0 0 0 0 1 1
0 0 0 0 0 0 0 0 0 0 0 0 0 0 0 0 0 0 0 0 0 0 0 0 0 0 0 0 0 0 0 0 0 0 0 0 0 0 0 0 0 0 0 0 0 0 0 0 1
0 0 0 0 0 0 0 0 0 0 0 0 0 0 0 0 0 0 0 0 0 0 0 0 0 0 0 0 0 0 0 0 0 0 0 0 0 0 0 0 0 0 0 0 0 0 0 0 0
0 0 0 0 0 0 0 0 0 0 0 0 0 0 0 0 0 0 0 0 0 0 0 0 0 0 0 0 0 0 0 0 0 0 0 0 0 0 0 0 0 0 0 0 0 0 0 0 0
0 0 0 0 0 0 0 0 0 0 0 0 0 0 0 0 0 0 0 0 0 0 0 0 0 0 0 0 0 0 0 0 0 0 0 0 0 0 0 0 0 0 0 0 0 0 0 0 0
0 0 0 0 0 0 0 0 0 0 0 0 0 0 0 0 0 0 0 0 0 0 0 0 0 0 0 0 0 0 0 0 0 0 0 0 0 0 0 0 0 0 0 0 0 0 0 0 0
0 0 0 0 0 0 0 0 0 0 0 0 0 0 0 0 0 0 0 0 0 0 0 0 0 0 0 0 0 0 0 0 0 0 0 0 0 0 0 0 0 0 0 0 0 0 0 0 0
0 0 0 0 0 0 0 0 0 0 0 0 0 0 0 0 0 0 0 0 0 0 0 0 0 0 0 0 0 0 0 0 0 0 0 0 0 0 0 0 0 0 0 0 0 0 0 0 0
0 0 0 0 0 0 0 0 0 0 0 0 0 0 0 0 0 0 0 0 0 0 0 0 0 0 0 0 0 0 0 0 0 0 0 0 0 0 0 0 0 0 0 0 0 0 0 0 0
0 0 0 0 0 0 0 0 0 0 0 0 0 0 0 0 0 0 0 0 0 0 0 0 0 0 0 0 0 0 0 0 0 0 0 0 0 0 0 0 0 0 0 0 0 0 0 0 0
0 0 0 0 0 0 0 0 0 0 0 0 0 0 0 0 0 0 0 0 0 0 0 0 0 0 0 0 0 0 0 0 0 0 0 0 0 0 0 0 0 0 0 0 0 0 0 0 0
0 0 0 0 0 0 0 0 0 0 0 0 0 0 0 0 0 0 0 0 0 0 0 0 0 0 0 0 0 0 0 0 0 0 0 0 0 0 0 0 0 0 0 0 0 0 0 0 0
0 0 0 0 0 0 0 0 0 0 0 0 0 0 0 0 0 0 0 0 0 0 0 0 0 0 0 0 0 0 0 0 0 0 0 0 0 0 0 0 0 0 0 0 0 0 0 0 0
0 0 0 0 0 0 0 0 0 0 0 0 0 0 0 0 0 0 0 0 0 0 0 0 0 0 0 0 0 0 0 0 0 0 0 0 0 0 0 0 0 0 0 0 0 0 0 0 0
0 0 0 0 0 0 0 0 0 0 0 0 0 0 0 0 0 0 0 0 0 0 0 0 0 0 0 0 0 0 0 0 0 0 0 0 0 0 0 0 0 0 0 0 0 0 0 0 0
0 0 0 0 0 0 0 0 0 0 0 0 0 0 0 0 0 0 0 0 0 0 0 0 0 0 0 0 0 0 0 0 0 0 0 0 0 0 0 0 0 0 0 0 0 0 0 0 0
Wind_Speed
8 5 3 3 4 10 13 9 9 13 13 15 16 16 18 17 13 10 15 25 23 19 18 19 19 15 13 12 12 11 11 12 12 11 11 11 11 11 11 10 10 9 9 9 9 9 8 7 6
6 4 3 2 9 14 12 10 12 13 9 7 13 17 17 17 14 11 17 23 21 20 20 23 27 25 20 17 14 13 12 12 12 11 12 12 11 11 12 11 11 11 10 10 10 10 9 8 7
3 3 1 5 13 13 11 11 9 12 18 12 11 15 13 12 12 12 17 19 16 17 18 22 28 29 29 27 23 19 17 16 15 13 13 14 13 12 12 12 12 11 11 10 10 10 11 10 8
3 1 4 13 21 16 14 14 10 6 14 18 12 14 12 11 10 13 15 15 16 18 18 23 29 29 29 29 29 28 26 23 20 18 16 16 15 15 14 14 13 12 11 10 9 8 9 9 9
1 4 12 17 18 15 18 19 20 15 10 15 16 13 10 11 11 11 13 17 20 21 20 23 29 29 29 29 28 28 28 27 27 25 23 20 17 16 15 14 13 12 12 11 9 8 7 7 7
2 4 12 15 15 13 14 18 14 21 14 11 10 11 11 12 13 14 16 18 20 21 21 22 27 28 28 29 29 28 28 26 26 26 25 24 21 18 16 14 13 13 13 12 10 9 8 7 6
5 7 12 14 12 10 10 10 18 13 17 14 8 8 8 17 14 13 15 18 21 22 22 21 22 23 24 25 28 27 28 27 26 27 27 24 22 21 19 16 15 14 14 12 11 11 10 9 7
3 6 10 9 9 7 6 8 12 17 15 13 12 10 9 15 13 13 15 19 21 22 22 22 22 21 20 19 24 25 25 26 26 25 26 24 21 20 19 18 18 17 16 13 12 12 11 10 9
2 7 9 6 7 8 6 8 10 14 18 20 18 17 12 12 13 15 18 21 22 22 21 21 21 21 20 18 19 20 20 22 22 21 25 20 15 15 14 18 19 19 18 16 14 13 12 10 10
7 7 8 7 9 13 14 14 10 12 17 18 18 16 14 14 17 21 22 22 23 23 22 20 21 21 20 15 15 13 13 15 16 16 19 15 14 13 15 17 18 18 17 16 13 14 13 12 9
9 9 10 13 16 15 14 15 12 9 15 15 14 14 15 18 20 21 21 20 20 20 20 20 19 19 18 14 13 10 9 10 13 16 18 15 13 12 12 10 11 12 13 11 11 10 8 10 8
13 13 10 11 11 12 13 12 15 17 13 11 13 14 16 19 19 19 19 19 18 19 20 20 20 18 18 16 12 12 10 10 11 13 16 14 10 12 12 10 12 10 8 10 9 7 10 10 11
14 15 21 23 25 23 23 20 18 15 12 11 13 15 17 18 17 17 17 18 19 20 21 21 20 20 18 15 13 12 12 12 13 11 12 15 12 12 13 11 11 12 11 11 11 9 10 10 9
17 21 18 15 16 14 18 15 10 11 10 11 13 15 16 16 17 17 19 19 20 19 20 19 20 20 19 16 15 13 13 13 12 12 14 15 13 13 13 12 12 12 12 13 12 13 11 8 7
22 19 15 10 10 10 12 15 11 8 9 12 13 13 14 15 16 17 17 17 18 18 18 18 18 19 19 18 17 13 12 13 12 12 14 16 16 15 14 12 11 11 13 15 13 14 11 9 8
8 9 8 6 4 3 2 9 8 5 8 11 11 11 12 13 15 15 16 17 17 17 18 18 16 19 19 17 16 13 13 13 12 12 12 16 17 17 14 12 11 13 12 11 11 12 11 11 10
6 4 6 7 5 2 5 10 8 5 8 10 11 11 12 13 15 15 17 18 18 18 18 19 19 19 19 17 15 14 13 13 12 11 12 15 16 17 15 12 12 14 11 10 11 11 12 12 12
3 4 5 5 5 6 9 13 9 6 7 9 10 11 12 13 14 15 17 18 18 18 18 19 19 19 18 15 13 12 13 12 12 12 13 16 14 16 14 12 14 14 11 11 11 13 12 12 12
4 5 6 5 4 6 11 13 9 5 6 9 10 12 13 13 13 14 16 17 17 17 19 20 20 19 17 14 15 15 14 13 12 12 16 17 16 17 15 12 13 13 12 14 14 13 14 12 11
6 5 5 6 5 5 10 9 7 5 7 8 10 11 13 14 14 15 16 16 16 17 18 19 19 18 17 15 14 13 14 13 12 13 15 17 18 18 14 15 13 14 13 15 14 14 11 10 9
2 2 2 6 6 5 8 9 9 6 3 4 7 9 12 13 14 14 15 16 16 17 17 16 18 18 17 18 13 13 12 12 12 14 13 16 18 18 16 16 15 15 13 13 15 14 14 11 11
1 2 2 9 8 6 9 6 12 8 3 3 8 11 13 14 13 13 15 16 17 16 15 16 17 17 17 17 15 18 14 14 16 14 14 17 18 17 17 16 16 15 13 14 14 13 12 12 11
4 3 2 8 6 3 8 8 7 8 4 3 8 11 13 13 13 13 14 15 15 15 14 15 17 16 17 17 17 17 15 14 14 15 17 17 16 16 17 17 16 16 14 15 15 15 14 10 11
2 3 4 5 5 7 4 7 3 5 0 5 9 12 13 13 13 12 13 13 14 15 14 14 16 17 17 18 18 18 19 19 19 19 18 16 14 14 17 18 17 17 15 15 15 15 15 12 13
4 5 4 3 5 2 3 6 3 8 4 6 10 13 14 13 12 12 13 14 14 16 15 15 17 17 18 18 18 18 18 19 18 18 17 17 14 14 18 18 17 16 16 17 16 15 15 14 14
6 6 6 7 8 4 3 3 6 6 3 6 9 12 12 13 11 12 13 13 14 16 16 16 17 17 18 18 18 17 18 14 13 17 17 16 14 15 19 19 18 19 18 17 15 13 14 13 13
2 2 4 6 6 8 4 4 5 3 2 7 11 12 13 12 11 12 12 13 14 15 16 16 17 17 17 18 18 17 17 17 17 18 17 14 15 16 19 19 19 18 18 17 16 12 14 14 13
4 1 3 5 8 9 6 3 2 4 4 9 12 14 14 11 10 12 12 12 14 14 15 16 16 17 17 17 16 14 16 17 17 16 18 18 19 19 20 19 19 18 17 17 15 14 14 15 14
1 1 0 2 5 7 10 3 7 3 5 9 12 13 13 11 11 12 12 12 13 14 14 15 16 16 16 16 16 16 16 16 17 16 17 18 18 19 20 19 19 18 17 16 15 15 15 15 14
1 0 2 5 5 6 8 2 8 4 5 8 12 13 11 10 11 12 12 13 13 14 14 15 15 15 16 16 16 16 16 16 17 17 18 18 19 18 19 19 19 18 18 17 15 15 15 14 14
Wind_Direction
321 318 281 240 146 91 80 60 74 75 68 61 64 69 66 49 29 51 355 349 353 4 10 10 6 356 348 345 341 338 336 333 333 335 335 330 325 322 320 320 322 322 314 301 290 281 272 263 256
322 300 250 255 113 97 81 66 63 49 36 84 64 60 58 48 25 17 349 341 356 12 18 16 17 14 6 355 344 339 335 327 320 317 315 311 308 307 308 309 310 315 316 306 291 281 273 261 253
285 284 358 73 77 76 72 38 41 71 48 43 68 50 46 21 9 353 341 341 4 21 21 20 23 25 24 20 11 359 346 334 325 315 308 304 298 295 297 298 298 301 305 303 295 282 271 260 245
265 170 79 87 78 56 43 26 18 79 48 24 71 67 72 29 0 344 343 357 19 27 27 26 26 27 27 26 25 22 16 6 354 340 326 317 305 297 299 299 292 290 291 292 291 286 273 259 245
268 93 95 90 83 71 50 36 44 50 52 28 66 80 67 22 8 359 6 17 27 28 26 27 27 27 27 26 24 23 21 19 17 11 360 345 324 309 306 304 297 289 283 279 279 281 276 264 248
88 95 99 91 90 76 57 31 42 50 53 35 59 86 65 19 10 14 20 26 30 29 26 25 24 24 24 25 23 23 21 19 17 13 7 2 354 339 324 313 309 302 290 279 273 274 274 267 252
76 75 90 99 91 63 38 44 34 45 46 36 18 77 65 21 12 19 27 30 31 29 26 23 20 18 17 20 19 17 17 16 15 13 9 3 1 358 351 338 324 315 303 287 279 274 271 267 258
44 97 97 87 85 76 62 66 51 41 49 39 36 57 37 13 17 25 32 33 31 27 24 19 17 14 11 10 14 12 14 12 10 10 7 3 359 358 356 356 350 337 321 302 284 276 273 268 261
41 89 83 75 102 109 105 91 72 66 71 65 59 58 45 29 30 33 33 31 27 24 20 17 14 10 6 4 4 5 7 8 5 6 3 0 357 355 350 352 350 349 342 323 296 278 273 271 252
51 81 62 44 98 108 86 79 97 79 61 60 58 55 48 41 36 36 32 26 21 18 14 12 11 7 2 359 357 358 0 1 2 2 360 356 352 350 348 341 346 346 343 333 317 291 270 256 250
59 74 89 77 92 104 95 73 62 92 58 50 52 49 43 40 38 34 31 25 19 14 12 9 7 5 1 356 354 351 351 353 355 359 358 354 352 347 348 342 343 341 341 340 333 320 286 266 259
83 54 87 93 84 89 93 92 71 66 77 71 63 53 46 41 37 31 26 20 15 13 10 6 3 3 359 355 351 349 348 348 348 352 354 354 349 347 346 339 337 336 337 333 328 320 309 290 267
90 87 81 89 89 88 90 88 87 79 81 78 69 58 49 43 37 32 24 19 14 10 6 4 0 1 357 353 350 349 347 346 342 345 349 352 347 344 342 335 335 332 334 330 325 316 312 301 288
109 112 108 100 96 87 89 85 80 79 85 77 66 56 48 42 33 27 20 14 10 6 2 0 359 359 355 354 351 346 345 342 341 343 345 349 346 341 337 332 331 330 332 328 319 313 306 293 283
121 115 113 115 114 127 97 74 75 85 87 74 63 56 49 40 33 27 19 11 6 2 359 0 357 356 355 354 350 346 343 341 340 341 341 347 345 341 336 329 326 331 328 323 319 316 309 298 288
148 146 119 91 99 137 148 99 87 83 84 71 58 50 45 39 32 26 18 11 6 1 359 359 358 354 355 354 347 344 342 341 339 339 340 346 343 343 335 328 327 330 325 320 319 316 315 306 293
195 173 126 113 50 100 115 123 114 93 82 69 55 44 36 32 26 21 16 11 6 2 359 358 357 355 354 351 346 343 342 340 338 340 342 343 341 341 335 327 329 330 325 322 320 319 315 307 297
153 141 121 107 67 96 117 127 123 99 76 65 51 39 30 25 21 15 11 8 4 1 359 356 354 354 353 351 344 343 342 340 338 340 341 338 337 338 334 328 330 330 325 326 323 318 313 304 295
83 113 113 95 102 104 127 134 129 114 74 55 41 29 20 15 13 11 8 5 1 360 359 356 354 353 354 352 346 343 340 338 337 339 336 335 334 334 332 329 328 328 324 321 318 320 315 310 306
112 120 121 115 114 121 143 143 140 113 71 48 33 23 14 3 2 3 2 2 359 359 359 355 353 349 352 350 341 337 333 333 335 335 333 334 333 332 330 330 328 325 321 317 319 319 312 307 307
119 332 228 159 127 141 160 181 186 159 110 62 38 22 14 4 356 356 357 359 357 358 358 353 350 347 349 347 341 338 335 335 339 338 334 333 330 328 328 328 327 323 320 314 313 310 307 307 305
211 14 266 167 181 178 211 252 177 183 176 36 22 14 6 1 355 354 357 358 356 354 353 350 348 347 348 346 344 343 340 340 338 335 330 329 329 327 326 327 326 322 317 311 308 304 300 296 293
354 2 197 191 216 204 205 260 147 177 221 358 7 2 358 357 353 354 358 355 352 350 350 347 346 348 349 347 346 342 338 337 332 333 331 332 330 328 327 328 325 321 316 311 307 302 294 286 280
302 172 133 167 212 246 191 235 165 166 148 359 357 353 352 354 350 350 352 352 351 350 348 347 346 348 349 348 346 343 339 337 334 336 334 333 329 327 329 328 324 320 316 313 310 304 293 283 274
354 304 277 249 232 250 121 240 68 117 70 8 348 345 348 348 346 345 349 349 349 349 347 346 347 347 348 347 346 342 340 337 334 335 332 331 328 328 327 326 322 319 317 314 314 311 301 290 281
12 346 350 314 310 317 193 266 117 135 66 0 348 344 343 345 346 345 347 346 346 346 347 347 346 345 346 346 344 341 341 336 332 332 330 328 325 324 324 323 320 318 318 316 318 317 314 306 293
325 34 353 286 281 275 243 131 148 193 315 348 347 347 349 346 343 343 344 346 346 346 347 346 344 344 344 343 342 340 341 338 334 331 329 328 326 323 325 323 321 320 321 320 321 321 321 317 306
24 72 251 295 316 305 294 238 152 149 352 348 349 349 349 348 345 344 346 347 347 346 345 345 345 343 342 342 341 338 339 338 335 332 332 330 328 326 325 326 324 321 322 323 321 322 326 325 319
157 144 47 286 291 295 304 26 97 90 12 349 349 351 350 349 349 347 347 347 345 344 345 344 344 343 342 342 340 339 339 338 337 335 333 331 329 328 327 327 325 324 324 326 320 326 332 332 330
306 266 254 293 287 257 284 13 120 72 7 351 348 354 353 352 348 346 346 344 344 343 344 343 343 342 341 340 338 338 339 339 339 337 335 333 332 330 329 328 327 327 328 329 321 326 337 338 337